Location: Unspecified
(58.9933°N, 5.6375°E)
Time: 23:00:42
(UTC+02:00)

Resurs 1-4 Rocket - Visible Passes

Search period start: 01 September 2014 00:00
Search period end: 11 September 2014 00:00
Orbit: 800 x 815 km, 98.3° (Epoch: 31 August)

Date Brightness Start Highest point End Pass type
(mag) Time Alt. Az. Time Alt. Az. Time Alt. Az.
01 Sep 4.2 04:48:50 10° NE 04:53:12 25° E 04:57:32 10° SE visible
02 Sep 4.7 04:24:53 10° NE 04:28:26 18° E 04:31:59 10° SE visible
03 Sep 4.9 04:01:28 10° NE 04:03:35 12° ENE 04:05:42 10° ESE visible
03 Sep 3.0 05:39:31 10° NNE 05:44:43 53° E 05:49:53 10° S visible
04 Sep 3.6 05:15:13 10° NNE 05:20:08 37° E 05:25:02 10° SSE visible
05 Sep 4.2 04:51:01 10° NNE 04:55:28 26° E 04:59:53 10° SSE visible
06 Sep 4.6 04:27:02 10° NE 04:30:43 19° E 04:34:23 10° SE visible
07 Sep 4.9 04:03:30 10° NE 04:05:52 13° E 04:08:14 10° ESE visible
07 Sep 2.9 05:41:44 10° NNE 05:46:58 56° E 05:52:10 10° S visible
08 Sep 3.5 05:17:25 10° NNE 05:22:23 39° E 05:27:20 10° SSE visible
09 Sep 4.1 04:53:13 10° NNE 04:57:44 28° E 05:02:14 10° SSE visible
10 Sep 4.6 04:29:12 10° NE 04:32:59 20° E 04:36:47 10° SE visible
10 Sep 2.3 06:08:22 10° NNE 06:13:42 82° ESE 06:19:01 10° SSW visible
